Watford City, ND

11:23 PM CST on December 15, 2019 (GMT -0600)
Watford City

Weather History for KS25 - October, 2019

Change the Weather History Date:

Monday, October 28, 2019

  Actual Average (KISN) Record (KISN)
Temperature  
Mean Temperature 16 °F -  
Max Temperature 21 °F 50 °F 80 °F (1937)
Min Temperature 12 °F 28 °F 2 °F (1925)
Degree Days  
Heating Degree Days 50    
Moisture  
Dew Point 11 °F    
Average Humidity 83    
Maximum Humidity 86    
Minimum Humidity 79    
Precipitation  
Precipitation 0.00 in - - ()
Sea Level Pressure  
Sea Level Pressure 29.96 in    
Wind  
Wind Speed 10 mph (SW)    
Max Wind Speed 15 mph    
Max Gust Speed 23 mph    
Visibility 10 miles    
Events Snow    
Averages and records for this station are not official NWS values.
T = Trace of Precipitation, MM = Missing Value Source: NWS Daily Summary

Daily Weather History Graph

Daily Weather History Graph

Search for Another Location

Airport or City:

Astronomy

Oct. 28, 2019 Rise Set
Actual Time 8:31 AM CDT 6:41 PM CDT
Civil Twilight 7:59 AM CDT 7:13 PM CDT
Nautical Twilight 7:22 AM CDT 7:49 PM CDT
Astronomical Twilight 6:47 AM CDT 8:25 PM CDT
Moon 8:54 AM CDT (10/28) 7:27 PM CDT (10/28)
Length of Visible Light 11h 14m
Length of Day
10h 10m
New Moon, 0% of the Moon is Illuminated
Oct 28
New Moon
Nov 4
First Quarter
Nov 12
Full
Nov 19
Last Quarter
Nov 26
New

Hourly Weather History & Observations

Time (CDT) Temp. Windchill Dew Point Humidity Pressure Visibility Wind Dir Wind Speed Gust Speed Precip Events Conditions
12:15 AM 12.2 °F -1.0 °F 8.6 °F 85% 30.07 in 10.0 mi SW 10.4 mph - N/A   Clear
12:35 AM 12.2 °F -1.0 °F 8.6 °F 85% 30.06 in 10.0 mi SW 10.4 mph - N/A   Clear
12:55 AM 12.2 °F 0.7 °F 6.8 °F 79% 30.04 in 10.0 mi SW 8.1 mph - N/A   Clear
1:15 AM 12.2 °F 1.7 °F 6.8 °F 79% 30.03 in 10.0 mi SW 6.9 mph - N/A   Clear
1:55 AM 12.2 °F -0.2 °F 8.6 °F 85% 30.01 in 10.0 mi SW 9.2 mph - N/A   Clear
2:15 AM 12.2 °F -0.2 °F 8.6 °F 85% 30.00 in 10.0 mi SW 9.2 mph - N/A   Clear
2:35 AM 14.0 °F 0.5 °F 8.6 °F 79% 29.99 in 10.0 mi SW 11.5 mph - N/A   Clear
2:55 AM 14.0 °F 0.5 °F 10.4 °F 86% 29.97 in 10.0 mi SW 11.5 mph - N/A   Clear
3:15 AM 14.0 °F 0.5 °F 10.4 °F 86% 29.97 in 10.0 mi WSW 11.5 mph - N/A   Clear
3:35 AM 15.8 °F 1.4 °F 12.2 °F 86% 29.96 in 10.0 mi SW 13.8 mph - N/A   Clear
3:55 AM 15.8 °F 3.4 °F 12.2 °F 86% 29.95 in 10.0 mi SW 10.4 mph - N/A   Clear
4:15 AM 15.8 °F 4.2 °F 12.2 °F 86% 29.94 in 10.0 mi SW 9.2 mph - N/A   Clear
4:35 AM 15.8 °F 5.1 °F 12.2 °F 86% 29.93 in 10.0 mi WSW 8.1 mph - N/A   Clear
4:55 AM 17.6 °F 6.4 °F 12.2 °F 79% 29.91 in 10.0 mi SW 9.2 mph - N/A   Clear
5:15 AM 17.6 °F 5.7 °F 14.0 °F 86% 29.90 in 10.0 mi SW 10.4 mph - N/A   Clear
5:35 AM 19.4 °F 5.5 °F 14.0 °F 80% 29.89 in 10.0 mi SW 15.0 mph 20.7 mph N/A   Clear
5:55 AM 19.4 °F 6.6 °F 14.0 °F 80% 29.88 in 10.0 mi SW 12.7 mph - N/A   Clear
6:15 AM 19.4 °F 6.6 °F 14.0 °F 80% 29.88 in 10.0 mi SW 12.7 mph 18.4 mph N/A   Scattered Clouds
6:55 AM 21.2 °F 8.9 °F 17.6 °F 86% 29.87 in 2.5 mi SW 12.7 mph 23.0 mph N/A Snow Light Snow